This demonstration page uses our WeatherBlox Daily Observations layout. Learn more.

Left ArrowRight Arrow

Hourly Observations for September 2, 2020

Temp ( °F °C ) Dew Point ( °F °C ) Humidity (%) Winds ( mph kmh ) Pressure ( in mb ) Visibility ( mi km ) Precip ( " mm )
12:15 am 00:15 Clear 63 17.3 56 13.5 79 79 W 3 6 29.84 1010 10 16 N/A
12:35 am 00:35 Clear 60 15.7 56 13.4 86 86 W 5 7 29.86 1011 10 16 N/A
12:55 am 00:55 Clear 62 16.8 56 13.5 81 81 W 3 6 29.86 1011 10 16 N/A
1:15 am 01:15 Clear 60 15.5 55 12.6 83 83 W 6 9 29.87 1011 10 16 N/A
1:35 am 01:35 Clear 61 16 53 11.9 77 77 WNW 6 9 29.88 1012 10 16 N/A
1:55 am 01:55 Clear 60 15.5 53 11.6 78 78 WNW 5 7 29.89 1012 10 16 N/A
2:15 am 02:15 Clear 59 14.9 53 11.5 80 80 NW 6 9 29.89 1012 10 16 N/A
2:35 am 02:35 Clear 57 13.8 52 11.3 85 85 NW 6 9 29.90 1013 10 16 N/A
2:55 am 02:55 Clear 56 13.5 52 11 85 85 NNW 5 7 29.89 1012 10 16 N/A
3:15 am 03:15 Clear 59 15.1 51 10.5 74 74 N 6 9 29.90 1012 10 16 N/A
3:35 am 03:35 Clear 58 14.7 51 10.3 75 75 NNW 5 7 29.89 1012 10 16 N/A
3:55 am 03:55 Clear 56 13.3 51 10.3 82 82 WNW 5 7 29.90 1013 10 16 N/A
4:15 am 04:15 Clear 55 12.5 50 10.1 85 85 N N/A 29.91 1013 10 16 N/A
4:35 am 04:35 Clear 55 12.9 50 9.9 82 82 WNW 5 7 29.91 1013 10 16 N/A
4:55 am 04:55 Clear 55 12.8 49 9.6 81 81 NW 6 9 29.92 1013 10 16 N/A
5:15 am 05:15 Clear 55 12.5 49 9.6 83 83 NW 6 9 29.92 1013 10 16 N/A
5:35 am 05:35 Clear 53 11.8 49 9.4 85 85 NW 5 7 29.92 1013 10 16 N/A
5:55 am 05:55 Clear 53 11.7 49 9.3 85 85 NW 5 7 29.93 1013 10 16 N/A
6:15 am 06:15 Clear 53 11.6 48 9.1 85 85 NW 5 7 29.94 1014 10 16 N/A
6:35 am 06:35 Clear 53 11.9 48 9.1 83 83 N N/A 29.94 1014 10 16 N/A
6:55 am 06:55 Clear 52 11.2 48 9 86 86 NW 6 9 29.95 1014 10 16 N/A
7:15 am 07:15 Sunny 54 12 48 9 82 82 NW 7 11 29.98 1015 10 16 N/A
7:35 am 07:35 Sunny 53 11.9 48 9 83 83 NW 3 6 29.98 1015 10 16 N/A
7:55 am 07:55 Sunny 55 12.7 49 9.5 81 81 NW 3 6 29.97 1015 10 16 N/A
8:15 am 08:15 Sunny 56 13.6 50 10.2 80 80 N N/A 29.97 1015 10 16 N/A
8:35 am 08:35 Sunny 59 15.1 52 11.2 78 78 N N/A 29.96 1015 10 16 N/A
8:55 am 08:55 Sunny 61 16.2 53 11.5 74 74 N N/A 29.96 1015 10 16 N/A
9:15 am 09:15 Sunny 65 18.4 53 11.9 66 66 N N/A 29.95 1014 10 16 N/A
9:35 am 09:35 Sunny 67 19.6 53 11.5 60 60 W 3 6 29.93 1014 10 16 N/A
9:55 am 09:55 Sunny 70 20.9 51 10.5 52 52 WSW 3 6 29.93 1014 10 16 N/A
10:15 am 10:15 Sunny 72 22.3 50 9.8 45 45 W 3 6 29.92 1013 10 16 N/A
10:35 am 10:35 Sunny 75 23.7 47 8.2 37 37 N N/A 29.91 1013 10 16 N/A
10:55 am 10:55 Sunny 77 25 49 9.3 37 37 SSW 3 6 29.90 1012 10 16 N/A
11:15 am 11:15 Sunny 78 25.8 47 8.2 33 33 S 3 6 29.89 1012 10 16 N/A
11:35 am 11:35 Sunny 80 26.6 46 7.6 30 30 SSW 3 6 29.87 1012 10 16 N/A
11:55 am 11:55 Sunny 81 27.2 46 7.8 29 29 N N/A 29.86 1011 10 16 N/A
12:15 pm 12:15 Sunny 82 27.7 46 7.5 28 28 WSW 6 9 29.86 1011 10 16 N/A
12:35 pm 12:35 Sunny 84 28.9 46 8 27 27 S 6 9 29.84 1010 10 16 N/A
12:55 pm 12:55 Sunny 84 28.9 44 6.9 25 25 SSE 5 7 29.84 1010 10 16 N/A
1:15 pm 13:15 Sunny 84 28.9 43 6.3 24 24 S 5 7 29.81 1009 10 16 N/A
1:35 pm 13:35 Sunny 84 29.1 42 5.5 22 22 N N/A 29.81 1010 10 16 N/A
1:55 pm 13:55 Sunny 85 29.6 42 5.8 22 22 SE 7 11 29.80 1009 10 16 N/A
2:15 pm 14:15 Sunny 86 29.8 42 5.8 22 22 SSE 6 9 29.79 1009 10 16 N/A
2:35 pm 14:35 Sunny 85 29.6 42 5.5 22 22 ESE 7 11 29.79 1009 10 16 N/A
2:55 pm 14:55 Sunny 86 30.1 43 5.9 22 22 SSE 5 7 29.78 1008 10 16 N/A
3:15 pm 15:15 Sunny 87 30.5 42 5.5 21 21 SE 6 9 29.76 1008 10 16 N/A
3:35 pm 15:35 Sunny 87 30.4 42 5.8 21 21 SSW 6 9 29.76 1008 10 16 N/A
3:55 pm 15:55 Sunny 87 30.6 43 6.2 21 21 WSW 5 7 29.75 1008 10 16 N/A
4:15 pm 16:15 Sunny 88 30.9 43 5.9 21 21 N N/A 29.74 1007 10 16 N/A
4:35 pm 16:35 Sunny 87 30.8 42 5.4 20 20 S 3 6 29.72 1006 10 16 N/A
4:55 pm 16:55 Sunny 88 31 39 4 18 18 WSW 5 7 29.72 1006 10 16 N/A
5:15 pm 17:15 Sunny 88 31.1 41 4.9 19 19 N N/A 29.72 1006 10 16 N/A
5:35 pm 17:35 Sunny 87 30.6 38 3.6 18 18 N N/A 29.71 1006 10 16 N/A
5:55 pm 17:55 Sunny 87 30.6 40 4.5 19 19 SSE 3 6 29.70 1006 10 16 N/A
6:15 pm 18:15 Sunny 87 30.5 41 5.2 20 20 SSE 5 7 29.69 1006 10 16 N/A
6:35 pm 18:35 Sunny 86 30.2 41 5 20 20 SSE 3 6 29.70 1006 10 16 N/A
6:55 pm 18:55 Sunny 85 29.6 45 7.3 25 25 SSE 5 7 29.69 1005 10 16 N/A
7:15 pm 19:15 Sunny 84 28.7 49 9.5 30 30 SSE 3 6 29.69 1005 10 16 N/A
7:35 pm 19:35 Sunny 81 27.3 49 9.6 33 33 SSE 3 6 29.69 1005 10 16 N/A
7:55 pm 19:55 Sunny 77 25 52 10.9 41 41 SSE 3 6 29.71 1006 7 11 N/A
8:15 pm 20:15 Clear 74 23.2 52 11.1 47 47 SE 7 11 29.72 1006 10 16 N/A
8:35 pm 20:35 Clear 71 21.6 52 11.3 52 52 SE 7 11 29.73 1007 10 16 N/A
8:55 pm 20:55 Clear 70 20.9 52 11.2 54 54 SSE 7 11 29.74 1007 10 16 N/A
9:15 pm 21:15 Clear 69 20.7 51 10.4 52 52 SSE 6 9 29.74 1007 10 16 N/A
9:35 pm 21:35 Clear 69 20.7 49 9.2 48 48 SSE 5 7 29.74 1007 10 16 N/A
9:55 pm 21:55 Clear 66 18.7 50 10 57 57 SSE 3 6 29.76 1008 10 16 N/A
10:15 pm 22:15 Clear 65 18.6 50 10.1 58 58 S 5 7 29.77 1008 10 16 N/A
10:35 pm 22:35 Clear 67 19.7 49 9.6 52 52 S 8 13 29.78 1008 10 16 N/A
10:55 pm 22:55 Clear 67 19.7 49 9.6 52 52 S 8 13 29.78 1008 10 16 N/A
11:15 pm 23:15 Clear 67 19.6 50 10.2 55 55 S 8 13 29.77 1008 10 16 N/A
11:35 pm 23:35 Clear 67 19.4 51 10.8 58 58 S 10 17 29.78 1009 10 16 N/A
11:55 pm 23:55 Clear 68 20 53 11.6 59 59 S 9 15 29.77 1008 10 16 N/A

Powered by AerisWeather